DECAYED

STARLINK-30115, 57464 (Decayed)

Orbit data source: Space-Track

STARLINK-30115, 57464 was a payload satellite owned by SpaceX/Seattle (US) in LEO that was launched on Fri, 28 Jul 2023 UTC via an FALCON 9 launch vehicle from the Air Force Eastern Test Range (AFETR). Payload-class satellites include a variety of spacecraft equipped with specific instruments for various scientific and technological missions. These include communications satellites like Starlink; space stations such as the ISS; scientific satellites like the Hubble; Earth observation satellites from companies like Planet Labs, Umbra, and HawkEye 360; GPS; miniature CubeSats for education and research; and military/defense satellites.

Not visible in the next 10 days
Identifier
57464, 2023-107H
Orbit
Decayed
Country
Flag of USUS
Related business
Manufacturer
SpaceX/Seattle
Mission
Decayed Commercial Communications
Bus & Motor
STARLINK V2M, Unknown motor
Mass
730 kg wet, ~700 kg dry
Launch date (UTC)
2023-07-28 (3 years ago)
Launch vehicle
FALCON 9
Launch site
Air Force Eastern Test Range (AFETR)
Object type
Payload
Rocket body
Debris
Shape & HBR
Box + 2 Pan, 17.7 m
Radar Cross Section
33.884 m², Large (>1 m²)

Expand to show TLE details & history
Last TLE update: 1 year ago

TLE from 1 year ago
0 STARLINK-30115
1 57464U 23107H   25149.15985586  .13314573  87865-5  66402-2 0  9993
2 57464  42.9720  34.6797 0020907 253.0988 244.9324 16.19261242102871
Epoch: 2025-05-29T03:50Z
TLE epoch observation values (Epoch: 2025-05-29T03:50:11.546Z)
Latitude
27.34571°
Longitude
-123.30213°
Altitude
227.561 km
Speed
7.771 km/s
True Right ascension
12h 04m 42s
True Declination
27° 11' 40"
Sunlit
Object was in daylight at epoch
Visualization orbit readout
Latitude
Unknown
Longitude
Unknown
Altitude
Unknown
Speed
Unknown
Apparent Right ascension
Unknown
Apparent Declination
Unknown
Sunlit
N/A
Visualization observer readout
Local Sidereal Time
21:27:33
Azimuth
Unknown
Elevation
Unknown
Doppler factor
Unknown
Orbital elements
Apogee altitude
237.388 km
Perigee altitude
209.783 km
Semi-major axis
6,601.722 km
Eccentricity
0.00209
Inclination
42.972°
RAAN
34.6797°
Arg. of periapsis
253.0988°
True anomaly
244.71563°
Mean anomaly
244.9324°
Eccentric anomaly
244.82399°
Mean motion
4.04629 °/min
Orbital period
88.97 mins
BSTAR
0.0066402
Loading maneuver chart data...
Computing Atmospheric mass density...
Loading historical data...
Loading historical data...
Loading historical data...
Loading historical data...
Loading historical data...
Loading historical data...
Loading historical data...

Documentation

Showing up to 5 results
|